Location: State Line Observation Field
(36.5320°N, 77.5360°W)
Time: 23:40:41
(UTC-05:00)

LightSail 2 - Visible Passes

Search period start: 14 November 2019 00:00
Search period end: 24 November 2019 00:00
Orbit: 701 x 726 km, 24.0° (Epoch: 14 November)

Date Brightness Start Highest point End Pass type
(mag) Time Alt. Az. Time Alt. Az. Time Alt. Az.
14 Nov 7.3 04:05:00 17° SSE 04:05:00 17° SSE 04:07:14 10° SE visible
14 Nov 7.2 05:44:55 10° SW 05:48:25 18° S 05:51:55 10° SE visible
15 Nov 6.9 04:49:43 18° SSW 04:50:42 19° S 04:54:23 10° SE visible
16 Nov 7.6 03:55:27 15° SSE 03:55:27 15° SSE 03:56:42 10° SE visible
16 Nov 7.3 05:34:56 10° SW 05:37:49 15° SSW 05:40:42 10° SSE visible
17 Nov 7.1 04:40:08 17° S 04:40:08 17° S 04:43:23 10° SSE visible
18 Nov 8.0 03:45:51 10° SE 03:45:51 10° SE 03:45:53 10° SE visible
18 Nov 7.5 05:25:49 10° SSW 05:27:08 11° SSW 05:28:28 10° S visible
19 Nov 7.5 04:30:32 13° S 04:30:32 13° S 04:31:51 10° SSE visible
